Location: Bédeille
(43.0872°N, 1.1041°E)
Time: 12:07:20
(UTC+00:00)

Okean O Rocket - Pass Details

Date: 03 February 2023
Orbit: 621 x 643 km, 98.2° (Epoch: 19 March)

Event Time Altitude Azimuth Distance (km) Brightness Sun altitude
Rises 17:39:23 0° 114° (ESE) 2,917 4.6 -5.8°
Reaches altitude 10° 17:42:47 10° 85° (E) 2,020 3.5 -6.4°
Maximum altitude 17:44:36 12° 60° (ENE) 1,866 3.4 -6.8°
Drops below altitude 10° 17:46:26 10° 36° (NE) 2,032 3.7 -7.1°
Sets 17:49:52 0° 7° (N) 2,952 4.8 -7.7°
